Regional Weather Roundup
Issued by NWS

Home | Current Version | Previous Version | Graphics & Text | Print | Product List | Glossary Off
Versions: 1 2 3 4 5 6 7 8 9 10 11 12 13 14 15 16 17 18 19 20 21 22 23 24 25 26 27 28 29 30 31 32 33 34 35 36 37 38 39 40 41 42 43 44 45 46 47 48 49 50

000
ASUS43 KMKX 250759
RWRWI

WISCONSIN REGIONAL WEATHER ROUNDUP
NATIONAL WEATHER SERVICE MILWAUKEE/SULLIVAN WI
200 AM CST SUN FEB 25 2018

NOTE: "FAIR" INDICATES FEW OR NO CLOUDS BELOW 12,000 FEET WITH NO
SIGNIFICANT WEATHER AND/OR OBSTRUCTIONS TO VISIBILITY.

WIZ001-002-006>008-014>016-023>028-250900-
NORTHWEST WISCONSIN

CITY           SKY/WX    TMP DP  RH WIND       PRES   REMARKS
SUPERIOR ARPT  LGT SNOW  29  28  98 E8        29.35F WCI  21
ASHLAND        LGT SNOW  28  27  96 E3        29.33F FOG
HAYWARD        LGT SNOW  30  27  88 SW10      29.32F FOG     WCI  21
SIREN          LGT SNOW  27  26  98 W6        29.38S WCI  20
CUMBERLAND     LGT SNOW  28  27  93 W15       29.37R WCI  17
RICE LAKE      LGT SNOW  30  29  94 SW16G23   29.39S WCI  19
CHETEK         LGT SNOW  30  28  93 W10G23    29.39R WCI  21
LADYSMITH      LGT SNOW  31  30  97 SW6       29.35F WCI  25
EAU CLAIRE     LGT SNOW  27  24  89 W21G40    29.43R FOG     WCI  13
MENOMONIE      CLOUDY    26  23  87 SW20G29   29.46R FOG     WCI  13
NEW RICHMOND   LGT SNOW  25  23  91 W17G30    29.45R WCI  11
OSCEOLA        LGT SNOW  27  27 100 W20       29.47R WCI  13
$$

WIZ003>005-009-010-017-018-250900-
NORTH CENTRAL WISCONSIN

CITY           SKY/WX    TMP DP  RH WIND       PRES   REMARKS
MANITOWISH WTR LGT SNOW  28  28 100 S6        29.30F WCI  21
ARBOR VITAE    LGT SNOW  32  30  94 SE7       29.30F WCI  25
WOODRUFF       LGT SNOW  32  30  94 SE7       29.30F WCI  25
RHINELANDER    LGT SNOW  29  29 100 S3        29.30F FOG
EAGLE RIVER    LGT SNOW  28  28 100 CALM      29.29F
LAND O LAKES   LGT SNOW  29  28  96 SE6       29.31F VSB 3/4 WCI  22
PHILLIPS       LGT SNOW  29  29 100 S7        29.30F WCI  22
TOMAHAWK       LGT SNOW  29  28  96 CALM      29.32F
MEDFORD        LGT SNOW  31  29  95 SW13      29.33F WCI  21
MERRILL        LGT SNOW  31  31 100 S5        29.33F WCI  26
$$

WIZ029-030-035-036-043>047-250900-
CENTRAL WISCONSIN

CITY           SKY/WX    TMP DP  RH WIND       PRES   REMARKS
WAUSAU         LGT SNOW  32  31  96 SW8       29.33S FOG     WCI  25
MOSINEE        FLURRIES  32  32 100 SW8       29.36F WCI  25
MARSHFIELD     CLOUDY    32  29  88 W17G30    29.36S WCI  21
STEVENS POINT  MIX PCPN  31  31 100 SW7       29.37F WCI  24
WAUPACA        LGT RAIN  35  33  93 SW8       29.39F WCI  29
WAUTOMA        NOT AVBL
WISC RAPIDS    CLOUDY    33  29  85 MISG      29.41R
CAMP DOUGLAS   CLOUDY    31  27  87 W28G38    29.46R WCI  16
$$

WIZ011>013-019>022-031-037>040-048>050-250900-
NORTHEAST WISCONSIN

CITY           SKY/WX    TMP DP  RH WIND       PRES   REMARKS
ANTIGO         LGT SNOW  30  30 100 SE12      29.32F WCI  20
SHAWANO        RAIN      34  32  94 CALM      29.35F
OCONTO         CLOUDY    32  32  99 CALM      29.36F
STURGEON BAY   LGT SNOW  34  32  92 S10       29.35F FOG     WCI  26
GREEN BAY      LGT RAIN  35  33  92 S7        29.37F FOG     WCI  29
MANITOWOC      LGT RAIN  37  36  96 S13       29.37F WCI  29
APPLETON       RAIN      34  34 100 SW7       29.36F WCI  28
CLINTONVILLE   LGT SNOW  33  32  98 S6        29.36F WCI  27
OSHKOSH        CLOUDY    37  35  92 W13G22    29.39S WCI  29
$$

WIZ032>034-041-042-053>061-250900-
SOUTHWEST WISCONSIN

CITY           SKY/WX    TMP DP  RH WIND       PRES   REMARKS
LA CROSSE      CLOUDY    26  20  77 W12G33    29.58R WCI  16
SPARTA         CLOUDY    28  26  90 W16G25    29.51R WCI  17
VIROQUA        CLOUDY    25  25  99 W17G26    29.53R WCI  12
BOSCOBEL       CLOUDY    28  20  71 W18G43    29.62R WCI  15
PRAIRIE DU CHI CLOUDY    28  20  74 W23G30    29.63R WCI  13
PLATTEVILLE    CLOUDY    30  27  87 W29G40    29.61R WCI  15
$$

WIZ056-057-062-063-064-067-068-250900-
SOUTH CENTRAL WISCONSIN

CITY           SKY/WX    TMP DP  RH WIND       PRES   REMARKS
REEDSBURG      CLOUDY    30  25  81 W22G33    29.51R WCI  17
BARABOO/DELLS  CLOUDY    32  30  92 W20G25    29.47R WCI  20
LONE ROCK      NOT AVBL
MINERAL POINT  CLOUDY    30 N/A N/A W31G43    29.55R WCI  15
MADISON        CLOUDY    33  28  81 W12G30    29.51R WCI  24
MIDDLETON      CLOUDY    35  31  85 W24G35    29.50R WCI  22
WATERTOWN      CLOUDY    35  35 100 W22G31    29.47R WCI  24
MONROE         CLOUDY    32  28  86 W37G43    29.55R WCI  16
JANESVILLE     CLOUDY    34  34 100 W15G33    29.55R WCI  24
$$

WIZ051-052-058>065-066-070>072-250900-
SOUTHEAST WISCONSIN

CITY           SKY/WX    TMP DP  RH WIND       PRES   REMARKS
MILWAUKEE      CLOUDY    42  39  89 W28G39    29.45R
WAUKESHA       CLOUDY    36  36 100 W20G37    29.46R WCI  25
MILWAUKEE/TIMM CLOUDY    37  36  93 W22G28    29.44R WCI  27
RACINE         CLOUDY    40  37  89 W29G46    29.46R WCI  29
BURLINGTON     CLOUDY    37  32  84 W21G36    29.50R WCI  26
KENOSHA        CLOUDY    39  34  82 W31G47    29.49R WCI  27
FOND DU LAC    LGT RAIN  38  34  85 W15G25    29.41R WCI  29
SHEBOYGAN      CLOUDY    37  37 100 S13       29.38F FOG     WCI  29
WEST BEND      CLOUDY    37  37 100 SW16G31   29.41R WCI  28
JUNEAU         CLOUDY    34  34  97 SW28G35   29.47R WCI  21
$$

LSZ147-162-250900-
LAKE SUPERIOR

STATION/POSITION TIME  TEMP    WIND        PRES    WAVE
                       AIR SEA DIR/SP/G            HT/PER
                 (UTC) (F)     (DEG/KT/KT) (MB)    (FT/S)
DEVILS ISLAND    0700   29      80/ 18/ 21  995.7F
SAXON HARBOR     0740   28      70/  1/  3  993.2F
$$

LMZ867-665-643>646-250900-
LAKE MICHIGAN

STATION/POSITION TIME  TEMP    WIND        PRES    WAVE
                       AIR SEA DIR/SP/G            HT/PER
                 (UTC) (F)     (DEG/KT/KT) (MB)    (FT/S)
NORTHPORT PIER   0722   33                  997.0F
KEWAUNEE LAKESHO 0724   35     180/ 13/ 15  994.9
SHEBOYGAN LAKESH 0700   37     180/ 18/ 19  995.9F
PORT WASHINGTON  0740   37     240/  4/  7  997.0F
KENOSHA   LAKESH 0700   41     230/  2/  5  997.3
$$

TC  - TEMPERATURE IN CELSIUS
VSB - VISIBILITY IN STATUTE MILES
WCI - WIND CHILL INDEX
HX  - HEAT INDEX





USA.gov is the U.S. government's official web portal to all federal, state and local government web resources and services.